(77526) = 2001 HN57

Discovered at Anderson Mesa on 2001-04-25 by LONEOS.

Orbit

Orbit type: Main Belt

Note: WebGL enabled browser required.

epoch2023-09-13.0
epoch JD2460200.5
perihelion date2020-08-14.03285
perihelion JD2459075.53285
argument of perihelion (°)342.19831
ascending node (°)124.61860
inclination (°)15.68090
eccentricity0.1174403
perihelion distance (AU)2.2498692
Tisserand w.r.t. Jupiter3.4
ΔV w.r.t. Earth (km/sec)10.6
semimajor axis (AU)2.5492545
mean anomaly (°)272.41053
mean daily motion (°/day)0.24214980
aphelion distance (AU)2.849
period (years)4.07
P-vector [x]-0.29867813
P-vector [y]0.90518302
P-vector [z]0.30238234
Q-vector [x]-0.92807198
Q-vector [y]-0.34933360
Q-vector [z]0.12902884
absolute magnitude15.58
phase slope0.15
uncertainty0
referenceMPEC 2024-A55
observations used926
oppositions18
arc length (days)9277
first opposition used1998
last opposition used2023
residual rms (arc-secs)0.82
perturbers coarse indicatorM-v
perturbers precise indicator003Ek
first observation date used1998-07-25.0
last observation date used2023-12-18.0
computer nameMPCLINUX
JD of orbit computation2456760.680289
perihelion JD uncertainty (days)2.2547E-04
argument of perihelion uncertainty (°)6.9529E-05
ascending node uncertainty (°)4.4155E-05
inclination uncertainty (°)6.6423E-06
eccentricity uncertainty 6.3640E-08
perihelion distance uncertainty (AU)1.5704E-07
Minimum Orbit Intersection Distances (in AU)
for orbit epoch: 2460200.5, reference: E2024-A55
Mercury1.9355
Venus1.53673
Earth1.26897
Mars0.62036
Jupiter2.26101
Saturn6.82079
Uranus16.0939
Neptune27.2945

Observations

951 total observations over interval: 1998 07 25.29717 – 2023 12 18.135635
These data are available for download (format description).

Date (UT) J2000 RA J2000 Dec Magn Location Ref
1998 07 25.29717 21 07 55.40 -18 36 51.3 21.7 V 691 – Steward Observatory, Kitt Peak-Spacewatch MPS 79862
1998 07 25.31933 21 07 54.30 -18 37 03.1 21.4 V 691 – Steward Observatory, Kitt Peak-Spacewatch MPS 79862
1998 07 25.34470 21 07 52.97 -18 37 17.0 20.4 V 691 – Steward Observatory, Kitt Peak-Spacewatch MPS 79862
1999 12 16.14465 04 21 22.44 +00 00 01.4 18.5   704 – Lincoln Laboratory ETS, New Mexico MPS 35799
1999 12 16.15953 04 21 21.59 +00 00 07.1 18.7   704 – Lincoln Laboratory ETS, New Mexico MPS 35799
1999 12 16.17442 04 21 20.78 +00 00 10.9 18.7   704 – Lincoln Laboratory ETS, New Mexico MPS 35799
1999 12 16.18959 04 21 19.96 +00 00 17.6 18.8   704 – Lincoln Laboratory ETS, New Mexico MPS 35799
2000 01 11.15252 04 06 34.40 +03 47 46.6 19.3   704 – Lincoln Laboratory ETS, New Mexico MPS 35799
2000 01 11.16756 04 06 34.18 +03 47 56.4 19.4   704 – Lincoln Laboratory ETS, New Mexico MPS 35799
2000 01 11.18290 04 06 33.93 +03 48 05.4 19.2   704 – Lincoln Laboratory ETS, New Mexico MPS 35799
2000 01 11.19797 04 06 33.83 +03 48 15.3 20.0   704 – Lincoln Laboratory ETS, New Mexico MPS 35799
2000 01 11.21302 04 06 33.64 +03 48 25.6 19.4   704 – Lincoln Laboratory ETS, New Mexico MPS 35799
2001 03 24.48769 14 48 46.92 +08 25 05.4 20.6   608 – Haleakala-AMOS MPS 35799
2001 03 24.49785 14 48 46.65 +08 25 11.4 19.9   608 – Haleakala-AMOS MPS 35799
2001 03 24.51130 14 48 46.30 +08 25 18.2 20.0   608 – Haleakala-AMOS MPS 35799
2001 04 25.20531 14 26 21.50 +12 10 08.2 19.1 R 699 – Lowell Observatory-LONEOS MPS 30382
2001 04 25.23499 14 26 19.91 +12 10 15.4   699 – Lowell Observatory-LONEOS MPS 30382
2001 04 25.26479 14 26 18.27 +12 10 21.4   699 – Lowell Observatory-LONEOS MPS 30382
2001 04 25.29467 14 26 16.55 +12 10 28.3   699 – Lowell Observatory-LONEOS MPS 30382
2001 04 26.28465 14 25 23.84 +12 14 13.9 19.2   704 – Lincoln Laboratory ETS, New Mexico MPS 30382
2001 04 26.29785 14 25 23.20 +12 14 15.2 19.2   704 – Lincoln Laboratory ETS, New Mexico MPS 30382
2001 04 26.31107 14 25 22.31 +12 14 18.3 19.5   704 – Lincoln Laboratory ETS, New Mexico MPS 30382
2001 04 26.32429 14 25 21.68 +12 14 20.9 18.7   704 – Lincoln Laboratory ETS, New Mexico MPS 30382
2002 07 14.28751 20 45 11.77 -17 09 38.8 18.6   644 – Palomar Mountain/NEAT MPS 107991
2002 07 14.36463 20 45 07.87 -17 10 16.0 19.5   644 – Palomar Mountain/NEAT MPS 107991
2002 07 14.43628 20 45 04.40 -17 10 50.0 19.6   644 – Palomar Mountain/NEAT MPS 107991
2002 07 28.36859 20 33 07.73 -19 05 50.0 20.6   608 – Haleakala-AMOS MPS 107992
2002 07 28.37907 20 33 07.11 -19 05 54.9 20.3   608 – Haleakala-AMOS MPS 107992
2002 07 28.38944 20 33 06.57 -19 06 00.7 20.8   608 – Haleakala-AMOS MPS 107992
2003 10 01.36227 04 23 00.70 -00 41 26.9 19.2 R 699 – Lowell Observatory-LONEOS MPS 86907
2003 10 01.38249 04 23 00.96 -00 41 33.8   699 – Lowell Observatory-LONEOS MPS 86907
2003 10 01.40247 04 23 01.12 -00 41 40.9   699 – Lowell Observatory-LONEOS MPS 86907
2003 10 01.42359 04 23 01.40 -00 41 49.2   699 – Lowell Observatory-LONEOS MPS 86907
2003 10 19.37220 04 22 19.77 -02 37 46.6 18.6   704 – Lincoln Laboratory ETS, New Mexico MPS 87942
2003 10 19.38382 04 22 19.52 -02 37 51.3 19.1   704 – Lincoln Laboratory ETS, New Mexico MPS 87942
2003 10 19.39771 04 22 19.20 -02 37 55.6 19.6   704 – Lincoln Laboratory ETS, New Mexico MPS 87942
2003 10 19.40951 04 22 19.01 -02 38 00.5 19.2   704 – Lincoln Laboratory ETS, New Mexico MPS 87942
2003 10 19.42093 04 22 18.86 -02 38 05.0 19.3   704 – Lincoln Laboratory ETS, New Mexico MPS 87942
2003 10 21.37961 04 21 39.04 -02 50 14.2 18.5 R 699 – Lowell Observatory-LONEOS MPS 87942
2003 10 21.39609 04 21 38.65 -02 50 19.8   699 – Lowell Observatory-LONEOS MPS 87943
2003 10 21.41270 04 21 38.18 -02 50 27.4   699 – Lowell Observatory-LONEOS MPS 87943
2003 10 21.42939 04 21 37.79 -02 50 32.2   699 – Lowell Observatory-LONEOS MPS 87943
2003 11 22.20512 03 57 53.48 -04 44 01.1 18.7 V 703 – Catalina Sky Survey MPS 91772
2003 11 22.21642 03 57 52.74 -04 44 00.5 18.9 V 703 – Catalina Sky Survey MPS 91772
2003 11 22.22773 03 57 52.01 -04 44 00.7 18.8 V 703 – Catalina Sky Survey MPS 91772
2003 11 22.23906 03 57 51.38 -04 43 58.5 19.5 V 703 – Catalina Sky Survey MPS 91772
2003 11 23.27818 03 56 50.36 -04 43 39.3 18.1 V 703 – Catalina Sky Survey MPS 91772
2003 11 23.28958 03 56 49.62 -04 43 39.0 16.9 V 703 – Catalina Sky Survey MPS 91772
2003 11 23.30091 03 56 48.97 -04 43 39.5 18.7 V 703 – Catalina Sky Survey MPS 91772
2003 11 23.31232 03 56 48.26 -04 43 39.7 18.5 V 703 – Catalina Sky Survey MPS 91772
2003 11 26.27973 03 53 54.27 -04 40 52.5 18.3 R 699 – Lowell Observatory-LONEOS MPS 91772
2003 11 26.29963 03 53 53.09 -04 40 51.1   699 – Lowell Observatory-LONEOS MPS 91772
2003 11 26.31964 03 53 51.88 -04 40 48.9   699 – Lowell Observatory-LONEOS MPS 91772
2003 11 26.33967 03 53 50.63 -04 40 47.7   699 – Lowell Observatory-LONEOS MPS 91772
2003 11 29.27279 03 51 00.39 -04 35 23.5 18.7   704 – Lincoln Laboratory ETS, New Mexico MPS 92680
2003 11 29.28554 03 50 59.68 -04 35 22.4 19.0   704 – Lincoln Laboratory ETS, New Mexico MPS 92680
2003 11 29.29843 03 50 58.94 -04 35 19.8 19.0   704 – Lincoln Laboratory ETS, New Mexico MPS 92680
2003 11 29.31113 03 50 58.16 -04 35 18.1 19.1   704 – Lincoln Laboratory ETS, New Mexico MPS 92680
2003 12 03.30090 03 47 13.19 -04 23 48.6 18.2 R 699 – Lowell Observatory-LONEOS MPS 92680
2003 12 03.32095 03 47 11.96 -04 23 42.6   699 – Lowell Observatory-LONEOS MPS 92680
2003 12 03.34097 03 47 10.90 -04 23 39.6   699 – Lowell Observatory-LONEOS MPS 92680
2003 12 03.36101 03 47 09.76 -04 23 34.7   699 – Lowell Observatory-LONEOS MPS 92680
2003 12 13.19937 03 38 54.20 -03 35 22.5 19.3   704 – Lincoln Laboratory ETS, New Mexico MPS 93662
2003 12 13.21247 03 38 53.52 -03 35 16.7 19.2   704 – Lincoln Laboratory ETS, New Mexico MPS 93662
2003 12 13.22548 03 38 52.97 -03 35 12.3 19.6   704 – Lincoln Laboratory ETS, New Mexico MPS 93662
2003 12 13.23849 03 38 52.27 -03 35 06.9 19.2   704 – Lincoln Laboratory ETS, New Mexico MPS 93662
2003 12 13.25166 03 38 51.65 -03 35 02.8 19.5   704 – Lincoln Laboratory ETS, New Mexico MPS 93662
2003 12 19.26580 03 34 48.53 -02 52 56.6 20.1 V 703 – Catalina Sky Survey MPS 94605
2003 12 19.27772 03 34 48.07 -02 52 51.3 18.9 V 703 – Catalina Sky Survey MPS 94605
2003 12 19.30052 03 34 47.16 -02 52 42.6 19.0 V 703 – Catalina Sky Survey MPS 94605
2003 12 19.31194 03 34 46.77 -02 52 37.2 19.1 V 703 – Catalina Sky Survey MPS 94605
2003 12 22.21587 03 33 09.83 -02 29 17.6 18.9   644 – Palomar Mountain/NEAT MPS 94605
2003 12 22.23631 03 33 09.14 -02 29 07.1 18.8   644 – Palomar Mountain/NEAT MPS 94605
2003 12 22.25818 03 33 08.43 -02 28 56.0 18.9   644 – Palomar Mountain/NEAT MPS 94605
2004 01 14.10615 03 29 09.47 +01 23 45.2 18.9   644 – Palomar Mountain/NEAT MPS 96590
2004 01 14.12716 03 29 09.67 +01 23 59.8 18.9   644 – Palomar Mountain/NEAT MPS 96590
2004 01 14.14939 03 29 09.85 +01 24 14.9 18.8   644 – Palomar Mountain/NEAT MPS 96590
2005 03 08.47036 14 20 33.00 +09 07 15.3 19.5   704 – Lincoln Laboratory ETS, New Mexico MPS 128778
2005 03 08.48348 14 20 32.91 +09 07 23.8 20.4   704 – Lincoln Laboratory ETS, New Mexico MPS 128778
2005 03 08.49468 14 20 32.79 +09 07 30.3 19.7   704 – Lincoln Laboratory ETS, New Mexico MPS 128778
2005 03 08.50595 14 20 32.68 +09 07 36.3 19.4   704 – Lincoln Laboratory ETS, New Mexico MPS 128778
2005 03 09.47099 14 20 24.34 +09 17 01.5 19.4   704 – Lincoln Laboratory ETS, New Mexico MPS 128778
2005 03 09.48266 14 20 24.25 +09 17 07.4 19.6   704 – Lincoln Laboratory ETS, New Mexico MPS 128778
2005 03 09.49435 14 20 24.09 +09 17 13.5 19.6   704 – Lincoln Laboratory ETS, New Mexico MPS 128778
2005 03 13.40444 14 19 33.80 +09 55 43.3 18.8   703 – Catalina Sky Survey MPS 129878
2005 03 13.41103 14 19 33.82 +09 55 48.8 18.3   703 – Catalina Sky Survey MPS 129878
2005 03 13.41755 14 19 33.74 +09 55 50.8 18.6   703 – Catalina Sky Survey MPS 129878
2005 03 13.42405 14 19 33.57 +09 55 54.7 18.7   703 – Catalina Sky Survey MPS 129878
2005 03 17.42463 14 18 15.14 +10 35 36.5 18.8 R 703 – Catalina Sky Survey MPS 129878
2005 03 17.43322 14 18 14.92 +10 35 40.4 19.2 R 703 – Catalina Sky Survey MPS 129878
